{"data":{"norad_id":45048,"epoch":"2026-05-24T23:04:59.655648Z","epoch_age_seconds":78630,"freshness":"FRESH","line1":"1 45048U 20006E   26144.96180157  .00101552  00000+0  14904-2 0  9996","line2":"2 45048  53.0267 232.7830 0007267  20.5613 339.5688 15.54707552348963","mean_motion":15.54707552,"eccentricity":0.0007267,"inclination_deg":53.0267,"raan_deg":232.783,"arg_perigee_deg":20.5613,"mean_anomaly_deg":339.5688,"bstar":0.0014904,"rev_number":34896,"period_min":92.621920961763,"perigee_km":398.07501852276,"apogee_km":407.93072721398,"semimajor_km":6781.1398728684,"source":"CELESTRAK","updated_at":"2026-05-25T13:38:16.377255Z"}}